OBJECT N, 57178

Orbit data source: Space-Track

You're viewing an uncataloged RSO

Recently launched and/or uncataloged RSOs may have evolving metadata. Metadata may include the following, but is not limited to: Owner, Manufacturer, Bus, Motor, and Mission.

OBJECT N, 57178 is a satellite in SSO that was launched on Tue, 27 Jun 2023 UTC via a SOYUZ-2-1B launch vehicle from the Vostochny Cosmodrome (VOSTO). Unknown objects in Earth's orbit typically refer to objects detected orbiting the Earth but have not yet been identified or cataloged. These objects could be anything from previously untracked satellites, spent rocket stages, debris from satellite collisions, or even natural meteoroids temporarily captured by Earth's gravity.

Loading next visibility...
Identifier
57178, 2023-091N
Orbit
SSO
Country
Flag of TBDTBD
Related business
Flag of RUNational Research University Higher School of Economics (RU)
Manufacturer
Sputniks
Mission
Operational Amateur Imaging/Com
Bus & Motor
CUBESAT 3U, Unknown motor
Mass
3.39 kg wet, 3.39 kg dry
Launch date (UTC)
2023-06-27 (3 years ago)
Launch vehicle
SOYUZ-2-1B
Launch site
Vostochny Cosmodrome (VOSTO)
Object type
Unknown
Shape & HBR
Box, 0.2 m
Radar Cross Section
0.035 m², Medium (>0.1 m² and < 1m²)

Expand to show TLE details & history
Last TLE update: 7 hours ago

TLE from 7 hours ago
0 OBJECT N
1 57178U 23091N   26220.17122307  .00006041  00000-0  19543-3 0  9994
2 57178  97.5057 286.4497 0008634 264.5302  95.4954 15.32410327172381
Epoch: 2026-08-08T04:06Z
TLE epoch observation values (Epoch: 2026-08-08T04:06:33.673Z)
Latitude
-0.00008°
Longitude
-91.87699°
Altitude
472.299 km
Speed
7.63 km/s
True Right ascension
19h 05m 47s
True Declination
0° 00' 00"
Sunlit
Object was in full shadow at epoch
Visualization orbit readout
Latitude
Unknown
Longitude
Unknown
Altitude
Unknown
Speed
Unknown
Apparent Right ascension
Unknown
Apparent Declination
Unknown
Sunlit
N/A
Visualization observer readout
Local Sidereal Time
00:49:50
Azimuth
Unknown
Elevation
Unknown
Doppler factor
Unknown
Orbital elements
Apogee altitude
471.486 km
Perigee altitude
459.668 km
Semi-major axis
6,843.714 km
Eccentricity
0.00086
Inclination
97.5057°
RAAN
286.4497°
Arg. of periapsis
264.5302°
True anomaly
95.59387°
Mean anomaly
95.4954°
Eccentric anomaly
95.54464°
Mean motion
3.83359 °/min
Orbital period
93.91 mins
BSTAR
0.00019543
Loading maneuver chart data...
Computing Atmospheric mass density...
Loading historical data...
Loading historical data...
Loading historical data...
Loading historical data...
Loading historical data...
Loading historical data...
Loading historical data...

Documentation

Showing up to 5 results
|